Location: Carnetin
(48.9010°N, 2.7059°E)
Time: 15:54:13
(UTC+00:00)

USA 267 - Pass Details

Date: 24 October 2021
Orbit: 1101 x 1107 km, 123.0° (Epoch: 27 November)

Event Time Altitude Azimuth Distance (km) Brightness Sun altitude
Rises 17:55:10 0° 140° (SE) 3,907 5.8 -12.6°
Reaches altitude 10° 17:57:42 10° 145° (SE) 2,952 5.2 -13.0°
Maximum altitude 18:04:05 56° 222° (SW) 1,295 3.9 -14.1°
Drops below altitude 10° 18:10:30 10° 300° (WNW) 2,964 6.4 -15.1°
Sets 18:13:04 0° 305° (NW) 3,924 7.1 -15.5°
